Location: Mactaquac Provincial Park
(45.9573°N, 66.8897°W)
Time: 15:16:01
(UTC-03:00)

CENTAUR R/B - Visible Passes

Search period start: 25 April 2015 00:00
Search period end: 05 May 2015 00:00
Orbit: 884 x 1305 km, 63.5° (Epoch: 21 April)

Date Brightness Start Highest point End Pass type
(mag) Time Alt. Az. Time Alt. Az. Time Alt. Az.
25 Apr 3.0 00:52:56 48° E 00:52:56 48° E 00:58:19 10° NE visible
25 Apr 3.6 02:40:05 29° W 02:42:37 40° NW 02:49:14 10° NNE visible
25 Apr 4.8 04:30:29 10° NW 04:35:27 20° N 04:40:41 10° NE visible
26 Apr 3.7 00:05:43 29° E 00:05:43 29° E 00:09:45 10° NE visible
26 Apr 3.0 01:52:51 49° W 01:54:07 56° NW 02:01:02 10° NE visible
26 Apr 4.6 03:41:13 10° WNW 03:46:28 23° NNW 03:52:03 10° NNE visible
26 Apr 5.0 05:34:44 10° NW 05:39:52 20° N 05:45:22 10° NE visible
26 Apr 4.2 23:18:26 17° E 23:18:26 17° E 23:20:43 10° ENE visible
27 Apr 2.5 01:05:34 81° W 01:05:48 84° NW 01:12:49 10° NE visible
27 Apr 4.3 02:52:41 13° W 02:57:36 28° NNW 03:03:38 10° NNE visible
27 Apr 5.0 04:45:57 10° NW 04:50:50 19° N 04:56:01 10° NE visible
28 Apr 2.6 00:18:10 62° E 00:18:10 62° E 00:24:30 10° NE visible
28 Apr 3.8 02:05:17 22° W 02:08:52 37° NNW 02:15:23 10° NNE visible
28 Apr 4.9 03:56:52 10° NW 04:01:47 20° N 04:06:59 10° NE visible
28 Apr 3.2 23:30:40 37° E 23:30:40 37° E 23:36:00 10° NE visible
29 Apr 3.2 01:17:46 34° W 01:20:19 51° NW 01:27:10 10° NE visible
29 Apr 4.8 03:07:37 10° WNW 03:12:47 22° NNW 03:18:16 10° NNE visible
29 Apr 5.1 05:00:58 10° NW 05:06:12 21° NNE 05:11:50 10° ENE visible
29 Apr 3.7 22:42:59 22° E 22:42:59 22° E 22:47:08 10° ENE visible
30 Apr 2.6 00:30:04 49° WSW 00:31:57 76° NW 00:38:58 10° NE visible
30 Apr 4.5 02:18:22 10° W 02:23:53 27° NNW 02:29:49 10° NNE visible
30 Apr 5.1 04:12:15 10° NW 04:17:10 19° N 04:22:25 10° NE visible
30 Apr 4.2 21:55:04 12° E 21:55:04 12° E 21:57:09 10° E visible
30 Apr 2.4 23:42:08 50° S 23:43:48 71° SE 23:50:41 10° NE visible
01 May 4.1 01:29:14 10° W 01:35:07 34° NNW 01:41:32 10° NNE visible
01 May 5.1 03:23:15 10° NW 03:28:08 20° N 03:33:18 10° NE visible
01 May 5.1 05:15:36 10° NNW 05:21:29 26° NNE 05:27:51 10° ENE visible
01 May 2.8 22:53:48 33° SSE 22:55:50 44° ESE 23:02:15 10° NE visible
02 May 3.5 00:40:49 12° WSW 00:46:31 47° NW 00:53:19 10° NNE visible
02 May 4.9 02:34:02 10° WNW 02:39:07 21° NNW 02:44:31 10° NE visible
02 May 5.2 04:27:12 10° NW 04:32:32 22° NNE 04:38:18 10° ENE visible
02 May 3.4 22:04:39 16° SSE 22:08:03 26° ESE 22:13:29 10° ENE visible
02 May 2.8 23:51:50 10° SW 23:58:07 69° NW 00:05:07 10° NE visible
03 May 4.7 01:44:45 10° WNW 01:50:11 25° NNW 01:56:00 10° NNE visible
03 May 5.2 03:38:33 10° NW 03:43:32 20° N 03:48:50 10° NE visible
03 May 4.8 05:29:59 10° NNW 05:36:36 34° NNE 05:43:43 10° E visible
03 May 4.0 21:17:16 10° SE 21:20:23 15° ESE 21:23:57 10° ENE visible
03 May 2.4 23:03:42 10° SSW 23:09:55 79° SE 23:16:51 10° NE visible
04 May 4.3 00:55:35 10° W 01:01:23 32° NNW 01:07:41 10° NNE visible
04 May 5.2 02:49:36 10° NW 02:54:28 19° N 02:59:38 10° NE visible
04 May 5.1 04:41:46 10° NNW 04:47:48 27° NNE 04:54:18 10° E visible
04 May 2.7 22:16:01 10° SSW 22:21:54 49° ESE 22:28:28 10° NE visible
